Content
SEND FEEDBACK

Daily
Averages
Monthly
Summary
United States of America

ST. LOUIS, MISSOURI


Home > North America > United States > Missouri
Elevation: 535 feet     Latitude: 38 45N     Longitude: 090 22W

WEATHER
 
SELECT A DAY
Number of Records: 198,949;   Date Range: 1/1/95 - 9/29/14
 
SHARE

PRINT THIS DATA

[ ← Previous Day ]
WEATHER ALMANAC - JUNE 15, 2013
[ Next Day → ]
[ °C ]   °F
Weather ElementAverageHighLow
Temperature75.5 °F87.1 °F (2:54 pm)66.9 °F (3:54 am)
Dewpoint65.8 °F69.8 °F (7:24 pm)59 °F (1:54 am)
Humidity73.1 %94 % (8:17 pm)51 % (2:54 pm)
Barometer29.98 in30.08 in (4:54 am)29.92 in (4:54 pm)
Wind Speed7.8 mph29.9 mph (8:05 pm)
Wind Gust43.7 mph (8:05 pm)
Weather ElementAverage
Visibility8.6 mi
Wind DirectionSSW (191 °)

Weather ElementTotal
Precipitation4.15 in
Cooling Degree Days12 (Base 65)
Growing Degree Days27 (Base 50)
Averaged from 31 records on June 15, 2013
WEATHER CONDITIONS BREAKOUT
WIND DIRECTION BREAKOUT
WEATHER BY HOUR - JUNE 15, 2013
[ °C ]   °F
Local TimeTemperatureDewpointHumidityBarometerVisibilityWind DirectionWind SpeedGust SpeedPrecipitationEventsConditions
1:54 AM72.0 °F59.0 °F64 %29.97 in10.0 miSSE (160°)3.5 mphClear
2:54 AM70.0 °F59.0 °F68 %29.99 in10.0 miSouth (170°)4.6 mphClear
3:54 AM66.9 °F60.1 °F79 %30.00 in10.0 miEast (100°)3.5 mphClear
4:54 AM69.1 °F60.1 °F73 %30.08 in10.0 miNW (320°)19.6 mphScattered Clouds
5:54 AM69.1 °F61.0 °F75 %30.06 in10.0 miSE (130°)4.6 mph0.00 inScattered Clouds
6:54 AM66.9 °F62.1 °F84 %29.95 in10.0 miSE (130°)10.4 mph0.05 inMostly Cloudy
7:54 AM71.1 °F62.1 °F73 %29.98 in10.0 miVariable3.5 mphMostly Cloudy
8:54 AM75.0 °F63.0 °F66 %29.99 in10.0 miSSW (200°)9.2 mphOvercast
9:54 AM77.0 °F62.1 °F60 %29.98 in10.0 miSSW (200°)6.9 mphMostly Cloudy
10:54 AM80.1 °F64.0 °F58 %29.99 in10.0 miSSW (210°)10.4 mphMostly Cloudy
11:54 AM82.0 °F64.9 °F56 %29.97 in10.0 miSSW (200°)10.4 mphClear
12:54 PM82.9 °F64.9 °F54 %29.96 in10.0 miVariable4.6 mphMostly Cloudy
1:54 PM86.0 °F66.9 °F53 %29.96 in10.0 miSW (220°)12.7 mphMostly Cloudy
2:54 PM87.1 °F66.9 °F51 %29.95 in10.0 miSW (230°)6.9 mphClear
3:54 PM87.1 °F66.9 °F51 %29.94 in10.0 miSSW (210°)6.9 mphMostly Cloudy
4:54 PM87.1 °F68.0 °F53 %29.92 in10.0 miSouth (190°)9.2 mphMostly Cloudy
5:54 PM82.9 °F68.0 °F60 %29.92 in10.0 miSSW (200°)9.2 mphMostly Cloudy
6:54 PM80.1 °F69.1 °F69 %29.92 in10.0 miCalm0.00 inRainLight Rain
7:24 PM78.8 °F69.8 °F74 %29.95 in10.0 miWSW (250°)5.8 mph0.00 inThunderstormMostly Cloudy
7:54 PM79.0 °F68.0 °F69 %29.95 in10.0 miWSW (240°)4.6 mph16.1 mph0.00 inRain-ThunderstormLight Thunderstorms and Rain
8:05 PM75.2 °F69.8 °F83 %29.99 in1.5 miWest (280°)29.9 mph43.7 mph0.22 inRain-ThunderstormHeavy Thunderstorms and Rain
8:14 PM73.4 °F69.8 °F88 %30.02 in0.8 miWest (270°)13.8 mph41.4 mph0.55 inRain-ThunderstormHeavy Thunderstorms and Rain
8:17 PM71.6 °F69.8 °F94 %30.01 in1.0 miWNW (300°)13.8 mph27.6 mph0.60 inRain-ThunderstormHeavy Thunderstorms and Rain
8:24 PM71.6 °F69.8 °F94 %30.00 in2.0 miNW (310°)8.1 mph21.9 mph0.65 inRain-ThunderstormHeavy Thunderstorms and Rain
8:28 PM71.6 °F69.8 °F94 %30.00 in3.0 miWNW (300°)8.1 mph0.66 inRain-ThunderstormHeavy Thunderstorms and Rain
8:43 PM71.6 °F68.0 °F88 %30.00 in7.0 miWNW (290°)6.9 mph0.68 inRain-ThunderstormLight Rain
8:54 PM72.0 °F66.9 °F84 %30.00 in10.0 miSW (230°)6.9 mph0.68 inRain-ThunderstormLight Thunderstorms and Rain
9:21 PM71.6 °F68.0 °F88 %30.02 in10.0 miWSW (250°)3.5 mph0.03 inRainLight Rain
9:54 PM72.0 °F66.9 °F84 %30.00 in10.0 miNNW (330°)3.5 mph0.03 inScattered Clouds
10:54 PM70.0 °F66.9 °F90 %30.02 in10.0 miCalmMostly Cloudy
11:54 PM70.0 °F66.9 °F90 %30.00 in10.0 miCalmOvercast
Hourly data recorded from KSUS, located miles away from St. Louis, Missouri







STORIES FROM OUR PARTNERS